When you browse on this site, cookies collect data to enhance your experience and personalize the content and advertising you see.
Visit our Privacy Policy to learn more. By continuing to use the site, you agree to this use of cookies and data.
  • In United Kingdom
  • List of Countries
  • For 7 days
  • Water Temperature
  • Satellite Maps
  • Weather Map
  • Weather Widgets
  • user-avatar
    Login

    Hourly Weather Verhovina

    Today, 9 December, Sunday

    Time Temperature Precipitation Wind Pressure Humidity
    00:00 0°C° 0 mm 0 mps 689 mmHg 100%
    01:00 +1°C° 0 mm 1 mps 689 mmHg 100%
    02:00 0°C° 0 mm 0 mps 689 mmHg 100%
    03:00 -1°C° 0 mm 2 mps 688 mmHg 90%
    04:00 -2°C° 0 mm 3 mps 688 mmHg 86%
    05:00 -2°C° 0 mm 3 mps 688 mmHg 88%
    06:00 -4°C° 0 mm 3 mps 688 mmHg 89%
    07:00 -2°C° 0 mm 3 mps 687 mmHg 86%
    08:00 -2°C° 0 mm 3 mps 687 mmHg 84%
    09:00 -2°C° 0 mm 3 mps 687 mmHg 83%
    10:00 -1°C° 0 mm 3 mps 687 mmHg 83%
    11:00 -1°C° 0 mm 4 mps 687 mmHg 86%
    12:00 -1°C° 0 mm 5 mps 687 mmHg 88%
    13:00 0°C° 0 mm 5 mps 686 mmHg 89%
    14:00 +2°C° 0 mm 5 mps 686 mmHg 76%
    15:00 -1°C° 0 mm 7 mps 685 mmHg 83%
    16:00 0°C° 0 mm 5 mps 685 mmHg 81%
    17:00 +2°C° 0 mm 2 mps 685 mmHg 81%
    18:00 +2°C° 0 mm 2 mps 684 mmHg 84%
    19:00 +1°C° 0 mm 2 mps 684 mmHg 85%
    20:00 +1°C° 0 mm 2 mps 684 mmHg 88%
    21:00 -1°C° 0 mm 4 mps 684 mmHg 87%
    22:00 -2°C° 0 mm 4 mps 684 mmHg 88%
    23:00 -1°C° 0 mm 3 mps 684 mmHg 88%

    Tomorrow, 10 December, Monday

    Time Temperature Precipitation Wind Pressure Humidity
    00:00 -1°C° 0 mm 2 mps 684 mmHg 87%
    01:00 -1°C° 0 mm 2 mps 684 mmHg 88%
    02:00 -1°C° 0 mm 3 mps 684 mmHg 88%
    03:00 -1°C° 0 mm 3 mps 684 mmHg 87%
    04:00 0°C° 0 mm 3 mps 684 mmHg 86%
    05:00 -1°C° 0 mm 4 mps 684 mmHg 89%
    06:00 -1°C° 0 mm 4 mps 684 mmHg 89%
    07:00 -1°C° 0 mm 4 mps 684 mmHg 87%
    08:00 0°C° 0 mm 3 mps 684 mmHg 86%
    09:00 0°C° 0 mm 3 mps 684 mmHg 87%
    10:00 0°C° 0 mm 3 mps 685 mmHg 88%
    11:00 +2°C° 0 mm 2 mps 685 mmHg 90%
    12:00 +3°C° 0 mm 2 mps 686 mmHg 93%
    13:00 +4°C° 0 mm 1 mps 686 mmHg 95%
    14:00 +4°C° 0 mm 1 mps 686 mmHg 98%
    15:00 +4°C° 0 mm 1 mps 686 mmHg 100%
    16:00 +3°C° 0.1 mm 1 mps 686 mmHg 100%
    17:00 +2°C° 0 mm 1 mps 686 mmHg 100%
    18:00 -1°C° 0 mm 2 mps 687 mmHg 95%
    19:00 -2°C° 0 mm 2 mps 687 mmHg 90%
    20:00 -2°C° 0 mm 2 mps 687 mmHg 89%
    21:00 -3°C° 0 mm 2 mps 687 mmHg 88%
    22:00 -3°C° 0 mm 2 mps 687 mmHg 89%
    23:00 -3°C° 0 mm 2 mps 687 mmHg 89%

    Day after tomorrow, 11 December, Tuesday

    Time Temperature Precipitation Wind Pressure Humidity
    00:00 -4°C° 0 mm 2 mps 688 mmHg 90%
    01:00 -4°C° 0 mm 2 mps 688 mmHg 89%
    02:00 -5°C° 0 mm 2 mps 688 mmHg 89%
    03:00 -5°C° 0 mm 2 mps 688 mmHg 90%
    04:00 -5°C° 0 mm 2 mps 687 mmHg 91%
    05:00 -6°C° 0 mm 2 mps 688 mmHg 91%
    06:00 -6°C° 0 mm 2 mps 687 mmHg 89%
    07:00 -6°C° 0 mm 2 mps 688 mmHg 87%
    08:00 -6°C° 0 mm 2 mps 688 mmHg 87%
    09:00 -6°C° 0 mm 2 mps 688 mmHg 84%
    10:00 -6°C° 0 mm 2 mps 689 mmHg 80%
    11:00 -5°C° 0 mm 2 mps 689 mmHg 81%
    12:00 -4°C° 0 mm 2 mps 689 mmHg 85%
    13:00 -4°C° 0 mm 2 mps 689 mmHg 89%
    14:00 -3°C° 0 mm 2 mps 689 mmHg 91%
    15:00 -4°C° 0 mm 2 mps 689 mmHg 94%
    16:00 -2°C° 0 mm 1 mps 689 mmHg 88%
    17:00 -5°C° 0 mm 2 mps 689 mmHg 84%
    18:00 -5°C° 0 mm 2 mps 690 mmHg 81%
    19:00 -6°C° 0 mm 2 mps 689 mmHg 79%
    20:00 -6°C° 0 mm 2 mps 689 mmHg 78%
    21:00 -6°C° 0 mm 2 mps 689 mmHg 77%
    22:00 -8°C° 0 mm 3 mps 689 mmHg 77%
    23:00 -7°C° 0 mm 2 mps 689 mmHg 78%

    12 December, Wednesday

    Time Temperature Precipitation Wind Pressure Humidity
    00:00 -7°C° 0 mm 2 mps 689 mmHg 78%
    01:00 -7°C° 0 mm 2 mps 689 mmHg 77%
    02:00 -7°C° 0 mm 2 mps 689 mmHg 77%
    03:00 -7°C° 0 mm 2 mps 689 mmHg 78%
    04:00 -7°C° 0 mm 2 mps 689 mmHg 79%
    05:00 -7°C° 0 mm 2 mps 689 mmHg 79%
    06:00 -7°C° 0 mm 2 mps 689 mmHg 82%
    07:00 -7°C° 0 mm 2 mps 689 mmHg 86%
    08:00 -8°C° 0 mm 3 mps 689 mmHg 92%
    09:00 -8°C° 0 mm 3 mps 689 mmHg 95%
    10:00 -8°C° 0 mm 4 mps 689 mmHg 95%
    11:00 -7°C° 0 mm 4 mps 689 mmHg 95%
    12:00 -5°C° 0 mm 4 mps 689 mmHg 95%
    13:00 -5°C° 0 mm 4 mps 688 mmHg 95%
    14:00 -6°C° 0 mm 5 mps 689 mmHg 95%
    15:00 -6°C° 0 mm 5 mps 688 mmHg 98%
    16:00 -6°C° 0.1 mm 5 mps 688 mmHg 99%
    17:00 -7°C° 0.1 mm 5 mps 688 mmHg 99%
    18:00 -7°C° 0.2 mm 5 mps 687 mmHg 99%
    19:00 -7°C° 0.2 mm 5 mps 687 mmHg 99%
    20:00 -7°C° 0.2 mm 5 mps 687 mmHg 100%
    21:00 -7°C° 0.2 mm 4 mps 688 mmHg 100%
    22:00 -7°C° 0.3 mm 4 mps 688 mmHg 100%
    23:00 -8°C° 0.2 mm 4 mps 687 mmHg 100%

    13 December, Thursday

    Time Temperature Precipitation Wind Pressure Humidity
    00:00 -8°C° 0.1 mm 4 mps 688 mmHg 100%
    01:00 -8°C° 0.1 mm 4 mps 687 mmHg 100%
    02:00 -8°C° 0.1 mm 4 mps 687 mmHg 99%
    03:00 -8°C° 0 mm 4 mps 687 mmHg 98%
    04:00 -8°C° 0 mm 4 mps 687 mmHg 98%
    05:00 -7°C° 0 mm 3 mps 688 mmHg 98%
    06:00 -7°C° 0 mm 3 mps 688 mmHg 98%
    07:00 -7°C° 0 mm 3 mps 688 mmHg 97%
    08:00 -7°C° 0 mm 3 mps 688 mmHg 97%
    09:00 -7°C° 0 mm 3 mps 688 mmHg 97%
    10:00 -6°C° 0 mm 3 mps 688 mmHg 97%
    11:00 -7°C° 0 mm 4 mps 689 mmHg 97%
    12:00 -5°C° 0 mm 4 mps 689 mmHg 96%
    13:00 -5°C° 0 mm 3 mps 689 mmHg 97%
    14:00 -4°C° 0 mm 3 mps 689 mmHg 99%

    14 December, Friday

    Time Temperature Precipitation Wind Pressure Humidity
    Show more